Other Public Products
Issued by NWS Grand Forks, ND

Home | Current Version | Previous Version | Graphics & Text | Print | Product List | Glossary On
Versions: 1 2 3 4 5 6 7 8 9 10 11 12 13 14 15 16 17 18 19 20 21 22 23 24 25 26 27 28 29 30 31 32 33 34 35 36 37 38 39 40 41 42 43 44 45 46 47 48 49 50
000
FPUS83 KFGF 190310
OPUFGF
PRAIRIE TO PINES WEATHER ROUNDUP
NATIONAL WEATHER SERVICE EASTERN NORTH DAKOTA/GRAND FORKS ND
1000 PM CDT SAT APR 18 2015

 **SATELLITE DATA USED TO AUGMENT SKY COVER AT AUTOMATED STATIONS**
 *****  WEATHER ACROSS EASTERN NORTH DAKOTA  *****

CITY           SKY/WX    TMP DP  RH WIND       PRES   REMARKS
GRAND FORKS    CLOUDY    55  33  43 CALM      29.83F
GRAND FORKS AF CLEAR     59  29  31 SE7       29.83F
GRAND CITY NWS   N/A     59 N/A N/A E6          N/A
BUXTON         NOT AVBL
DEVILS LAKE    CLOUDY    55  32  41 W10       29.85F
FARGO          CLOUDY    65  31  28 SE14      29.83F
WAHPETON ARPT  CLOUDY    61  34  36 S20G29    29.85S
$$

 *****  WEATHER ACROSS CENTRAL AND WESTERN NORTH DAKOTA  *****

CITY           SKY/WX    TMP DP  RH WIND       PRES   REMARKS
JAMESTOWN      CLOUDY    61  32  33 W13       29.84F
BISMARCK       CLOUDY    49  44  83 W7        29.93S
MINOT          LGT RAIN  49  45  86 SW6       29.93R
MINOT AFB      LGT RAIN  48  48 100 SW5       29.92R
GARRISON         N/A     48  46  93 N14       29.93R
WILLISTON      MOCLDY    50  26  39 NW22G31   30.02R
DICKINSON      LGT RAIN  48  42  80 N7        29.97R
HETTINGER      RAIN      47  44  90 N9        29.97R FOG
$$

 *****  OTHER OBSERVATIONS NORTHEAST NORTH DAKOTA  *****

CITY           SKY/WX    TMP DP  RH WIND       PRES   REMARKS
WALHALLA       FAIR      57  30  35 S10       29.83F
LANGDON        FAIR      55  30  38 SW10      29.85S
CAVALIER       FAIR      55  32  41 S5        29.83F
GRAFTON        FAIR      54  32  43 S8        29.85S
CANDO          FAIR      57  32  38 SW17G25   29.85F
FORT TOTTEN      N/A     56  28  34 W7        29.95
ROLLA          FAIR      50  37  62 N12       29.87S
RUGBY            N/A    N/A N/A N/A NW9       29.87
 ***** THE ABOVE OBSERVATIONS ARE NON NWS ARE NOT QUALITY
        CONTROLLED AND MAY MIS-REPORT RAIN FOR SNOW...
$$

 *****  OTHER OBSERVATIONS SOUTHEAST NORTH DAKOTA *****

CITY           SKY/WX    TMP DP  RH WIND       PRES   REMARKS
COOPERSTOWN    NOT AVBL
VALLEY CITY    CLOUDY    63  32  31 N3        29.83F HAZE
OAKES            N/A     54  36  50 S6        29.81F
GWINNER        CLEAR     63  34  34 SE14      29.81F
BUFFALO        NOT AVBL
WYNDMERE         N/A     64  36  34 SE13        N/A
 ***** THE ABOVE OBSERVATIONS ARE NON NWS ARE NOT QUALITY
       CONTROLLED AND MAY MIS-REPORT RAIN FOR SNOW...
$$

  *****  WEATHER ACROSS NORTHERN MINNESOTA  *****

CITY           SKY/WX    TMP DP  RH WIND       PRES   REMARKS
FLAG ISLAND    PTCLDY    50  25  37 SE7       29.90F
WARROAD        MOCLDY    48  34  57 SE7       29.90F
ROSEAU         CLOUDY    55  27  33 SE8       29.89F
HALLOCK        CLOUDY    59  25  27 SE14      29.84F
THF RVR FALLS  CLOUDY    57  30  35 E9        29.88F
HALSTAD        NOT AVBL
FOSSTON        CLOUDY    57  28  33 E7        29.88F
BAUDETTE       MOCLDY    53  21  28 SE10      29.93F
WASKISH        CLOUDY    54  27  35 E8        29.93F
CROOKSTON      CLOUDY    59  30  33 E6        29.86F
$$
  *****  WEATHER ACROSS CENTRAL AND WEST MINNESOTA  *****

CITY           SKY/WX    TMP DP  RH WIND       PRES   REMARKS
BEMIDJI        CLOUDY    55  32  42 SE9       29.92F
PARK RAPIDS    CLOUDY    59  33  37 E12       29.91S
WADENA         CLOUDY    57  36  44 E9        29.89F
DETROIT LAKES  CLOUDY    61  30  31 SE13G18   29.88F
MOORHEAD       CLOUDY    63  30  29 SE9       29.84F
FERGUS FALLS   CLOUDY    63  28  27 SE12      29.86F
ELBOW LAKE     LGT RAIN  54  48  81 SE12      29.87S
MORRIS MN      LGT RAIN  54  48  82 E9        29.85F
STAPLES        CLOUDY    55  34  44 E7        29.91F
WHEATON        LGT RAIN  52  46  82 SE7       29.88F
$$
  *****  WEATHER ELSEWHERE ACROSS MINNESOTA  *****

CITY           SKY/WX    TMP DP  RH WIND       PRES   REMARKS
DULUTH         FAIR      41  25  53 E13       30.02F
INTRNTL FALLS  MOCLDY    50  16  25 SE12      29.97F
ELY            MOCLDY    43  18  36 E8        30.03F
CLOQUET        CLOUDY    39  27  60 E12G17    30.01F
BRAINERD       CLOUDY    48  32  53 E8        29.95S
HIBBING        CLOUDY    43  24  47 E10       30.00F
ALEXANDRIA     LGT RAIN  54  45  71 E10       29.89F
SAINT CLOUD    LGT RAIN  54  42  64 E8        29.91F
MINNEAPOLIS    CLOUDY    65  35  33 E14       29.90F
$$

  *****  WEATHER ACROSS SOUTH DAKOTA  *****

CITY           SKY/WX    TMP DP  RH WIND       PRES   REMARKS
SIOUX FALLS    CLOUDY    57  55  93 SE3       29.81F
BROOKINGS      CLOUDY    55  54  94 SE7       29.83S
WATERTOWN      LGT RAIN  56  53  90 E7        29.83F FOG
HURON          LGT RAIN  55  54  96 CALM      29.81S FOG
SISSETON         N/A     55  53  93 SE9       29.84F
ABERDEEN       CLOUDY    54  51  90 NW8       29.82F
MITCHELL       CLOUDY    57  55  93 N5        29.81S FOG
PIERRE         CLOUDY    47  46  97 NW15      29.85S
MOBRIDGE       LGT RAIN  49  45  86 N14       29.86S
RAPID CITY     LGT RAIN  45  44  97 NW17      29.96S
$$

  *****  SOME WEATHER IN NEARBY STATES *****

CITY           SKY/WX    TMP DP  RH WIND       PRES   REMARKS
GLASGOW MT     CLEAR     47  17  30 NW17      30.12R
GREAT FALLS MT CLOUDY    42  29  59 CALM      30.26R
CHEYENNE WY    PTCLDY    37  31  78 N16G23    29.96R
SCOTTSBLUFF NE CLOUDY    49 N/A N/A NW12      29.94R
OMAHA NE       MOCLDY    55  54  96 SE7       29.81F
DES MOINES IA  CLOUDY    62  59  90 SE3       29.82F
DAVENPORT IA   MOCLDY    63  43  48 E20G25    29.92R
CHICAGO IL     MOCLDY    48  34  58 NE9       30.02F
EAU CLAIRE WI  CLOUDY    57  25  29 E13       29.97F
LA CROSSE WI   CLOUDY    62  26  25 SE8G17    29.95F
$$

  *****  SOME NATIONAL WEATHER *****

CITY           SKY/WX    TMP DP  RH WIND       PRES   REMARKS
LA GUARDIA NY  PTCLDY    66  27  23 N10       30.01R
RALEIGH NC     CLOUDY    66  63  90 CALM      30.01R
ATLANTA GA     CLOUDY    67  64  90 SE5       29.96R
NEW ORLEANS LA CLOUDY    71  67  87 SE13      29.80F
OKLAHOMA CITY  CLOUDY    61  51  70 SE14G20   29.77R
ALBUQUERQUE NM PTCLDY    57  24  28 NW13      29.97R
SALT LAKE CITY PTCLDY    59  35  40 NW3       29.97R
LOS ANGELES CA PTCLDY    60  55  83 W13       29.94S
BOISE ID       CLEAR     64  19  17 NW12      30.03R
SEATTLE WA     MOCLDY    58  37  45 N5        30.24F
$$

*** WEATHER ACROSS MANITOBA...SASKATCHEWAN AND ONTARIO ***
                ***ONTARIO***

CITY           SKY/WX    TMP DP  RH WIND       PRES   REMARKS
GERALDTON      PTCLDY    34  25  69 E6        30.20F
THUNDER BAY    PTCLDY    34  27  75 E9        30.16F
SIOUX LOOKOUT  CLEAR     46  21  36 S12       30.03S
TORONTO        CLEAR     46  28  49 N13       30.21R
BIG TROUT LK   CLOUDY    41  21  45 SE8       30.13F
PICKLE LAKE    NOT AVBL
DRYDEN         PTCLDY    48  19  32 SE15      29.99F
KENORA         NOT AVBL
$$
                *** MANITOBA***

CITY           SKY/WX    TMP DP  RH WIND       PRES   REMARKS
BRANDON        CLOUDY    48  41  76 W6        29.86R
DAUPHIN        MOCLDY    50  39  66 W14G20    29.82S
ISLAND LAKE    CLOUDY    45  27  49 E7        29.92F
PILOT MOUND    NOT AVBL
THE PAS        CLOUDY    37  36  93 N9        29.89R
THOMPSON       LGT RAIN  37  36  93 NE14      29.95F
WINNIPEG       MOCLDY    57  27  30 S17       29.82F
LYNN LAKE      LGT SNOW  32  32 100 NE16G23   30.04R WCI  21
CHURCHILL      MOCLDY    21  18  86 NE9       30.32S WCI  11
GILLAM         FRZ RAIN  30  28  93 E7        30.10F FOG     WCI  23
$$
                ***SASKATCHEWAN***

CITY           SKY/WX    TMP DP  RH WIND       PRES   REMARKS
ESTEVAN        CLOUDY    45  30  57 NW22G28   29.98R
KINDERSLEY     PTCLDY    41  30  65 NW16G23   30.16R
LLOYDMINSTER   PTCLDY    39  32  75 N14       30.19R
PRINCE ALBERT  LGT RAIN  41  36  81 N18G25    30.00R
REGINA         MOCLDY    45  30  57 NW14G22   30.01S
YORKTON        CLEAR     43  36  75 W12       29.91S



USA.gov is the U.S. government's official web portal to all federal, state and local government web resources and services.